Home   Weather   Saalfeld/Saale   Past weeks

Flag for Germany Past Weather in Saalfeld/Saale, Thuringia, Germany — Yesterday and Last 2 Weeks

Now
21 °F

Ice fog.


Feels Like: 21 °F
Forecast: 6 / 24 °F
Wind: 2 mph from North

Location: Erfurt-Bindersleben

Current Time: Jan 22, 2017 at 7:21:00 am

Latest Report: Jan 22, 2017 at 6:50 am


Visibility: 0 mi

Pressure: 30.33 "Hg

Humidity: 100%

Dew Point: 21 °F

Location of Saalfeld/SaaleLocation

Past Weather in Saalfeld/Saale — Graph

°F

Saalfeld/Saale Temperature Yesterday

Maximum temperature yesterday: 32 °F (at 2:50 pm)
Minimum temperature yesterday: 21 °F (at 6:50 am)
Average temperature yesterday: 26 °F

High & Low Weather Summary for the Past Weeks

 TemperatureHumidityPressure
High39 °F (Jan 12, 11:20 am)100% (Jan 8, 5:20 am)30.69 "Hg (Jan 8, 5:20 am)
Low14 °F (Jan 19, 10:50 pm)54% (Jan 7, 12:20 pm)29.00 "Hg (Jan 13, 3:50 am)
Average28 °F86%30.14 "Hg
* Reported Jan 7 6:20 am — Jan 22 6:20 am, Saalfeld/Saale, Weather by CustomWeather, © 2017

Note: Actual official high and low records may vary slightly from our data, if they occured in-between our weather recording intervals... More about our weather records

Advertising

Saalfeld/Saale Weather History for the Previous 24 Hours

Scroll right to see more
 ConditionsComfort  
Time TempWeatherWind HumidityBarometerVisibility
6:20 am
Sun, Jan 22
21 °FIce fog.2 mph100%30.33 "Hg0 mi
5:50 am21 °FIce fog.1 mph100%30.33 "Hg0 mi
5:20 am21 °FIce fog.2 mph100%30.33 "Hg0 mi
4:50 am23 °FIce fog.2 mph100%30.33 "Hg0 mi
4:20 am23 °FIce fog.2 mph100%30.33 "Hg0 mi
3:50 am23 °FIce fog.2 mph100%30.33 "Hg0 mi
3:20 am23 °FIce fog.2 mph100%30.33 "Hg0 mi
2:50 am23 °FIce fog.2 mph100%30.33 "Hg1 mi
2:20 am23 °FIce fog.2 mph100%30.36 "Hg2 mi
1:50 am23 °FIce fog.2 mph100%30.36 "Hg2 mi
1:20 am23 °FIce fog.5 mph93%30.36 "Hg3 mi
12:50 am23 °FIce fog.5 mph93%30.36 "Hg3 mi
12:20 am23 °FIce fog.5 mph93%30.36 "Hg3 mi
11:50 pm
Sat, Jan 21
23 °FIce fog.6 mph93%30.36 "Hg3 mi
11:20 pm23 °FIce fog.5 mph100%30.39 "Hg1 mi
10:50 pm25 °FIce fog.2 mph100%30.39 "Hg2 mi
10:20 pm25 °FIce fog.2 mph100%30.39 "Hg3 mi
9:50 pm25 °FClear.2 mph100%30.39 "Hg4 mi
9:20 pm25 °FClear.2 mph100%30.39 "Hg4 mi
8:50 pm25 °FClear.2 mph100%30.39 "Hg5 mi
8:20 pm27 °FClear.3 mph93%30.39 "Hg10 mi
7:50 pm27 °FClear.5 mph93%30.39 "Hg10 mi
7:20 pm27 °FClear.3 mph93%30.39 "Hg10 mi
6:50 pm28 °FClear.3 mph93%30.39 "Hg10 mi
6:20 pm28 °FClear.3 mph93%30.39 "Hg10 mi
5:50 pm27 °FClear.5 mph93%30.39 "Hg10 mi
5:20 pm28 °FPassing clouds.3 mph86%30.39 "HgN/A
4:50 pm28 °FClear.3 mph86%30.39 "Hg10 mi
4:20 pm30 °FSunny.6 mph80%30.39 "Hg10 mi
3:50 pm30 °FSunny.7 mph80%30.39 "Hg10 mi
3:20 pm32 °FSunny.6 mph75%30.39 "Hg10 mi
2:50 pm32 °FSunny.7 mph69%30.39 "Hg10 mi
2:20 pm30 °FSunny.7 mph75%30.39 "Hg10 mi
1:50 pm30 °FPassing clouds.5 mph75%30.42 "HgN/A
1:20 pm28 °FSunny.6 mph80%30.42 "Hg10 mi
12:50 pm28 °FPassing clouds.5 mph80%30.42 "HgN/A
12:20 pm28 °FSunny.5 mph74%30.45 "Hg10 mi
11:50 am27 °FSunny.3 mph80%30.45 "Hg10 mi
11:20 am27 °FSunny.3 mph80%30.45 "Hg10 mi
10:50 am27 °FSunny.3 mph74%30.45 "Hg10 mi
10:20 am25 °FSunny.2 mph80%30.45 "Hg10 mi
9:50 am23 °FSunny.2 mph80%30.45 "Hg10 mi
9:20 am21 °FSunny.2 mph80%30.45 "Hg10 mi
8:50 am21 °FSunny.5 mph80%30.45 "Hg10 mi
8:20 am21 °FSunny.3 mph93%30.45 "Hg10 mi
7:50 am21 °FClear.1 mph80%30.45 "Hg10 mi
7:20 am21 °FClear.3 mph80%30.45 "Hg10 mi
Weather by CustomWeather, © 2017

See weather overviewHow to use our weather pages